Cosmos 1437 - Orbit

View from above orbital plane
View from above orbital plane
View from above satellite
View from above satellite

Ground track
Ground track

The orbit data is extracted from the following two-line orbital elements,

1 13770U 83003A   13139.12107855  .00009187  00000-0  37325-3 0  2832
2 13770 081.1669 141.9197 0013974 026.3353 039.3074 15.24356479657436
Epoch (UTC): 19 May 2013 02:54:21
Eccentricity: 0.0013974
inclination: 81.1669°
perigee height: 483 km
apogee height: 502 km
right ascension of ascending node: 141.9197°
argument of perigee: 26.3353°
revolutions per day: 15.24356479
mean anomaly at epoch: 39.3074°
orbit number at epoch: 65743

The dashed part of the orbit path shows where the satellite is in the earth's shadow,  

Developed and maintained by Chris Peat, Heavens-Above GmbH. Please read the updated FAQ before sending e-mail. Imprint. DLR